SPATN KISP-ZZZZ

Flight info

Callsign SPATN
Flight time N/A
Altitude VFR
Route SVD VFB
Aircraft PA24/L-VGD/C

Departure

Time 2026-04-29 17:19
Airport Long Island MacArthur Airport (KISP)

Arrival

Time N/A
Airport ZZZZ
Time Latitude Longitude Altitude Speed Heading
2026-04-29 17:11 40.79821 -73.10915 117 ft 0 kts
2026-04-29 17:16 40.79817 -73.10926 98 ft 9 kts 176°
2026-04-29 17:16 40.79804 -73.10832 98 ft 15 kts 89°
2026-04-29 17:16 40.79814 -73.10726 98 ft 12 kts 37°
2026-04-29 17:17 40.79920 -73.10722 100 ft 19 kts 360°
2026-04-29 17:17 40.80065 -73.10721 101 ft 19 kts 360°
2026-04-29 17:17 40.80104 -73.10720 101 ft 0 kts
2026-04-29 17:18 40.80121 -73.10719 101 ft 10 kts
2026-04-29 17:18 40.80116 -73.10587 100 ft 43 kts 135°
2026-04-29 17:19 40.79797 -73.10198 215 ft 73 kts 136°
2026-04-29 17:19 40.79381 -73.09704 478 ft 84 kts 137°
2026-04-29 17:19 40.78924 -73.09178 751 ft 92 kts 137°
2026-04-29 17:19 40.78404 -73.08628 967 ft 104 kts 138°
2026-04-29 17:20 40.77787 -73.08054 1247 ft 108 kts 139°
2026-04-29 17:20 40.77149 -73.07455 1403 ft 118 kts 138°
2026-04-29 17:20 40.76553 -73.06659 1554 ft 130 kts 116°
2026-04-29 17:20 40.76317 -73.05483 1617 ft 137 kts 89°
2026-04-29 17:21 40.76446 -73.04285 1856 ft 130 kts 70°
2026-04-29 17:21 40.76848 -73.03241 2090 ft 126 kts 56°
2026-04-29 17:21 40.77406 -73.02362 2285 ft 127 kts 46°
2026-04-29 17:21 40.78061 -73.01545 2430 ft 125 kts 44°
2026-04-29 17:22 40.78672 -73.00783 2765 ft 122 kts 46°
2026-04-29 17:22 40.79265 -72.99978 2989 ft 119 kts 47°
2026-04-29 17:22 40.79854 -72.99234 3230 ft 116 kts 43°
2026-04-29 17:22 40.80514 -72.98610 3403 ft 118 kts 35°
2026-04-29 17:23 40.81223 -72.98097 3664 ft 115 kts 30°
2026-04-29 17:23 40.81973 -72.97669 3856 ft 121 kts 28°
2026-04-29 17:23 40.82782 -72.97367 4063 ft 122 kts 11°
2026-04-29 17:23 40.83638 -72.97420 4266 ft 125 kts 356°
2026-04-29 17:24 40.84483 -72.97658 4551 ft 123 kts 353°
2026-04-29 17:24 40.85317 -72.97931 4906 ft 123 kts 351°
2026-04-29 17:24 40.85736 -72.98076 5023 ft 122 kts 350°
2026-04-29 17:24 40.86391 -72.98307 5211 ft 120 kts 351°
2026-04-29 17:25 40.87199 -72.98610 5412 ft 122 kts 353°
2026-04-29 17:25 40.88031 -72.98805 5629 ft 121 kts 355°
2026-04-29 17:25 40.88856 -72.98946 5839 ft 120 kts 360°
2026-04-29 17:25 40.89686 -72.98981 6034 ft 119 kts
2026-04-29 17:26 40.90508 -72.98883 6223 ft 118 kts 10°
2026-04-29 17:26 40.91320 -72.98765 6424 ft 116 kts 10°
2026-04-29 17:26 40.92121 -72.98637 6602 ft 116 kts 11°
2026-04-29 17:26 40.92923 -72.98468 6770 ft 117 kts 13°
2026-04-29 17:27 40.93716 -72.98205 6935 ft 119 kts 20°
2026-04-29 17:27 40.94471 -72.97788 7137 ft 116 kts 25°
2026-04-29 17:27 40.95225 -72.97407 7290 ft 118 kts 20°
2026-04-29 17:27 40.96003 -72.97078 7473 ft 116 kts 19°
2026-04-29 17:28 40.96808 -72.96748 7506 ft 127 kts 19°
2026-04-29 17:28 40.97678 -72.96355 7502 ft 135 kts 21°
2026-04-29 17:28 40.98573 -72.95909 7513 ft 140 kts 23°
2026-04-29 17:28 40.99478 -72.95384 7513 ft 144 kts 26°
2026-04-29 17:29 41.00388 -72.94787 7498 ft 147 kts 28°
2026-04-29 17:29 41.01291 -72.94131 7497 ft 148 kts 31°
2026-04-29 17:29 41.02181 -72.93436 7494 ft 149 kts 32°
2026-04-29 17:29 41.02767 -72.92963 7497 ft 149 kts 32°
2026-04-29 17:30 41.03949 -72.91987 7494 ft 150 kts 33°
2026-04-29 17:30 41.04833 -72.91249 7482 ft 150 kts 33°
2026-04-29 17:30 41.05714 -72.90509 7485 ft 150 kts 33°
2026-04-29 17:30 41.06596 -72.89768 7485 ft 150 kts 33°
2026-04-29 17:31 41.07481 -72.89026 7475 ft 151 kts 33°
2026-04-29 17:31 41.08370 -72.88288 7473 ft 151 kts 33°
2026-04-29 17:31 41.09257 -72.87549 7483 ft 150 kts 33°
2026-04-29 17:31 41.10142 -72.86812 7486 ft 151 kts 32°
2026-04-29 17:32 41.11030 -72.86078 7487 ft 150 kts 32°
2026-04-29 17:32 41.11919 -72.85342 7487 ft 151 kts 32°
2026-04-29 17:32 41.12808 -72.84606 7490 ft 151 kts 32°
2026-04-29 17:32 41.13699 -72.83871 7491 ft 151 kts 32°
2026-04-29 17:33 41.14590 -72.83135 7491 ft 151 kts 32°
2026-04-29 17:33 41.15483 -72.82397 7491 ft 151 kts 32°
2026-04-29 17:33 41.16375 -72.81666 7491 ft 151 kts 31°
2026-04-29 17:33 41.17275 -72.80945 7491 ft 151 kts 33°
2026-04-29 17:34 41.18153 -72.80180 7490 ft 151 kts 33°
2026-04-29 17:34 41.19041 -72.79439 7490 ft 151 kts 32°
2026-04-29 17:34 41.19934 -72.78706 7490 ft 151 kts 33°
2026-04-29 17:34 41.20818 -72.77957 7490 ft 151 kts 33°
2026-04-29 17:35 41.21997 -72.76980 7488 ft 151 kts 33°
2026-04-29 17:35 41.23511 -72.75836 7486 ft 151 kts 35°
2026-04-29 17:35 41.24381 -72.75063 7492 ft 151 kts 34°
2026-04-29 17:36 41.25290 -72.74336 7491 ft 151 kts 27°
2026-04-29 17:36 41.26206 -72.73693 7488 ft 151 kts 28°
2026-04-29 17:36 41.27131 -72.72996 7487 ft 151 kts 31°
2026-04-29 17:36 41.28047 -72.72315 7490 ft 151 kts 28°
2026-04-29 17:37 41.28943 -72.71627 7486 ft 151 kts 27°
2026-04-29 17:37 41.29881 -72.70968 7490 ft 150 kts 31°
2026-04-29 17:37 41.30751 -72.70216 7485 ft 152 kts 33°
2026-04-29 17:37 41.31657 -72.69495 7490 ft 152 kts 28°
2026-04-29 17:38 41.32601 -72.68831 7480 ft 151 kts 30°
2026-04-29 17:38 41.33505 -72.68139 7479 ft 152 kts 27°
2026-04-29 17:38 41.34425 -72.67462 7477 ft 151 kts 33°
2026-04-29 17:38 41.35318 -72.66722 7480 ft 151 kts 34°
2026-04-29 17:39 41.36229 -72.66028 7479 ft 151 kts 30°
2026-04-29 17:39 41.37132 -72.65322 7478 ft 151 kts 32°
2026-04-29 17:39 41.38031 -72.64617 7475 ft 150 kts 28°
2026-04-29 17:39 41.38979 -72.64030 7480 ft 151 kts 27°
2026-04-29 17:40 41.39611 -72.63647 7483 ft 151 kts 27°
2026-04-29 17:40 41.40529 -72.62962 7481 ft 151 kts 27°
2026-04-29 17:40 41.41456 -72.62305 7484 ft 151 kts 31°
2026-04-29 17:40 41.42395 -72.61674 7485 ft 152 kts 25°
2026-04-29 17:41 41.43356 -72.61077 7483 ft 152 kts 25°
2026-04-29 17:41 41.44328 -72.60510 7481 ft 153 kts 25°
2026-04-29 17:41 41.45296 -72.59921 7481 ft 153 kts 27°
2026-04-29 17:41 41.46249 -72.59300 7483 ft 153 kts 24°
2026-04-29 17:42 41.47221 -72.58718 7480 ft 153 kts 22°
2026-04-29 17:42 41.48191 -72.58125 7478 ft 154 kts 24°
2026-04-29 17:42 41.49146 -72.57494 7477 ft 153 kts 25°
2026-04-29 17:42 41.50109 -72.56876 7478 ft 154 kts 20°
2026-04-29 17:43 41.51105 -72.56348 7478 ft 153 kts 23°
2026-04-29 17:43 41.52079 -72.55756 7476 ft 154 kts 24°
2026-04-29 17:43 41.53079 -72.55253 7475 ft 154 kts 19°